Newport, Oregon, United States (97365)
Lat: 44.64N, Lon: 124.05W
Wx Zone: ORZ002
Local Info
Past Weather Observations for Today

NOTE: This archive is for the closest National Weather Service station to Newport. Information may differ from the station used for current weather conditions.

Click here for Long-term Archive

Time Weather Temperature Dewpoint Humidity Pressure Winds Precip Visibility
18:35
Mostly Cloudy
55°F / 13°C 52°F / 11°C 88% 29.89 in
(1012 mb)
SW 12.7 mph
(SW 20 kph)
- 7SM
18:15
Mostly Cloudy
Light Rain
54°F / 12°C 50°F / 10°C 88% 29.86 in
(1011 mb)
SW 13.8 mph
(SW 22 kph)
- 7SM
17:55
Mostly Cloudy
Drizzle
54°F / 12°C 50°F / 10°C 88% 29.83 in
(1010 mb)
SW 16.1 mph
(SW 26 kph)
- 7SM
17:35
Mostly Cloudy
Light Rain
54°F / 12°C 52°F / 11°C 94% 29.83 in
(1010 mb)
SSW 16.1 mph
(SSW 26 kph)
- 7SM
17:15
Mostly Cloudy
Light Rain
54°F / 12°C 52°F / 11°C 94% 29.8 in
(1009 mb)
SSW 19.6 mph
(SSW 32 kph)
- 5SM
16:55
Overcast
Rain
54°F / 12°C 50°F / 10°C 88% 29.77 in
(1008 mb)
SSW 18.4 mph
(SSW 30 kph)
0.04 in
(1.02 mm)
4SM
16:35
Overcast
Rain
54°F / 12°C 52°F / 11°C 94% 29.77 in
(1008 mb)
W 13.8 mph
(W 22 kph)
0.02 in
(0.51 mm)
2 1/2SM
16:15
Mostly Cloudy
Fog And Mist
55°F / 13°C 52°F / 11°C 88% 29.74 in
(1007 mb)
SSW 21.9 mph
(SSW 35 kph)
- 5SM
15:55
Overcast
Rain
54°F / 12°C 52°F / 11°C 94% 29.71 in
(1006 mb)
SSW 20.7 mph
(SSW 33 kph)
- 4SM
15:35
Overcast
Drizzle
54°F / 12°C 52°F / 11°C 94% 29.68 in
(1005 mb)
SSW 26.5 mph
(SSW 43 kph)
- 4SM
15:15
Overcast
Drizzle
54°F / 12°C 52°F / 11°C 94% 29.65 in
(1004 mb)
SSW 19.6 mph
(SSW 32 kph)
- 3SM
14:55
Overcast
Rain
55°F / 13°C 54°F / 12°C 94% 29.59 in
(1002 mb)
SSW 25.3 mph
(SSW 41 kph)
0.03 in
(0.76 mm)
2 1/2SM
14:35
Overcast
Drizzle
55°F / 13°C 54°F / 12°C 94% 29.56 in
(1001 mb)
SSW 26.5 mph
(SSW 43 kph)
0.03 in
(0.76 mm)
3SM
14:15
Overcast
Light Rain
55°F / 13°C 55°F / 13°C 100% 29.5 in
(999 mb)
SSW 25.3 mph
(SSW 41 kph)
0.03 in
(0.76 mm)
2SM
13:55
Overcast
Rain
57°F / 14°C 55°F / 13°C 94% 29.47 in
(998 mb)
SSE 31.1 mph
(SSE 50 kph)
0.04 in
(1.02 mm)
2SM
13:35
Overcast
Drizzle
57°F / 14°C 55°F / 13°C 94% 29.44 in
(997 mb)
S 34.5 mph
(S 56 kph)
0.02 in
(0.51 mm)
3SM
13:15
Overcast
Rain
55°F / 13°C 55°F / 13°C 100% 29.42 in
(996 mb)
S 38 mph
(S 61 kph)
0.02 in
(0.51 mm)
1 1/2SM
12:55
Overcast
Light Rain
55°F / 13°C 55°F / 13°C 100% 29.42 in
(996 mb)
S 35.7 mph
(S 57 kph)
0.01 in
(0.25 mm)
2SM
12:35
Overcast
Heavy Rain
59°F / 15°C 54°F / 12°C 82% 29.39 in
(995 mb)
S 36.8 mph
(S 59 kph)
- 2SM
12:15
Partly Cloudy
Hazy
59°F / 15°C 54°F / 12°C 82% 29.39 in
(995 mb)
S 34.5 mph
(S 56 kph)
- 4SM
11:55
Partly Cloudy
Hazy
61°F / 16°C 55°F / 13°C 83% 29.39 in
(995 mb)
S 40.3 mph
(S 65 kph)
- 4SM
11:35
Mostly Cloudy
Fog And Mist
59°F / 15°C 55°F / 13°C 88% 29.39 in
(995 mb)
S 33.4 mph
(S 54 kph)
- 5SM
11:15
Mostly Cloudy
Light Rain
59°F / 15°C 55°F / 13°C 88% 29.39 in
(995 mb)
S 34.5 mph
(S 56 kph)
- 4SM
10:55
Partly Cloudy
Fog And Mist
59°F / 15°C 55°F / 13°C 88% 29.39 in
(995 mb)
S 31.1 mph
(S 50 kph)
0.06 in
(1.52 mm)
4SM
10:35
Overcast
Heavy Rain
57°F / 14°C 55°F / 13°C 94% 29.36 in
(994 mb)
S 46 mph
(S 74 kph)
0.05 in
(1.27 mm)
1 1/4SM
10:15
Mostly Cloudy
Drizzle
59°F / 15°C 54°F / 12°C 82% 29.36 in
(994 mb)
S 34.5 mph
(S 56 kph)
- 10SM
09:55
Overcast
Rain
57°F / 14°C 54°F / 12°C 88% 29.36 in
(994 mb)
SSE 23 mph
(SSE 37 kph)
0.03 in
(0.76 mm)
7SM
09:35
Overcast
Rain
57°F / 14°C 54°F / 12°C 88% 29.36 in
(994 mb)
SSE 17.3 mph
(SSE 28 kph)
0.02 in
(0.51 mm)
7SM
09:15
Mostly Cloudy
Light Rain
57°F / 14°C 52°F / 11°C 82% 29.36 in
(994 mb)
SE 16.1 mph
(SE 26 kph)
0.01 in
(0.25 mm)
7SM
08:55
Mostly Cloudy
Light Rain
59°F / 15°C 52°F / 11°C 77% 29.36 in
(994 mb)
SE 20.7 mph
(SE 33 kph)
0.01 in
(0.25 mm)
10SM
08:35
Partly Cloudy
63°F / 17°C 50°F / 10°C 64% 29.36 in
(994 mb)
SSE 27.6 mph
(SSE 44 kph)
- 10SM
08:15
Partly Cloudy
63°F / 17°C 50°F / 10°C 64% 29.33 in
(993 mb)
SE 21.9 mph
(SE 35 kph)
- 10SM
07:55
Partly Cloudy
61°F / 16°C 48°F / 9°C 63% 29.36 in
(994 mb)
SE 20.7 mph
(SE 33 kph)
- 10SM
07:35
Partly Cloudy
59°F / 15°C 50°F / 10°C 72% 29.36 in
(994 mb)
SE 17.3 mph
(SE 28 kph)
- 10SM
07:15
Partly Cloudy
59°F / 15°C 48°F / 9°C 68% 29.39 in
(995 mb)
SE 10.4 mph
(SE 17 kph)
- 10SM
06:55
Mostly Cloudy
59°F / 15°C 50°F / 10°C 72% 29.39 in
(995 mb)
ESE 13.8 mph
(ESE 22 kph)
- 10SM
06:35
Mostly Cloudy
59°F / 15°C 50°F / 10°C 72% 29.42 in
(996 mb)
ESE 11.5 mph
(ESE 19 kph)
- 10SM
06:15
Partly Cloudy
57°F / 14°C 50°F / 10°C 77% 29.44 in
(997 mb)
SE 13.8 mph
(SE 22 kph)
- 10SM
05:55
Clear
55°F / 13°C 50°F / 10°C 82% 29.44 in
(997 mb)
SE 10.4 mph
(SE 17 kph)
- 10SM
05:35
Partly Cloudy
55°F / 13°C 50°F / 10°C 82% 29.47 in
(998 mb)
SE 10.4 mph
(SE 17 kph)
- 10SM
05:15
Partly Cloudy
55°F / 13°C 50°F / 10°C 82% 29.47 in
(998 mb)
SE 9.2 mph
(SE 15 kph)
- 10SM
04:55
Mostly Cloudy
55°F / 13°C 52°F / 11°C 88% 29.5 in
(999 mb)
SE 13.8 mph
(SE 22 kph)
0.01 in
(0.25 mm)
10SM
04:35
Mostly Cloudy
Drizzle
55°F / 13°C 52°F / 11°C 88% 29.53 in
(1000 mb)
SSE 12.7 mph
(SSE 20 kph)
0.01 in
(0.25 mm)
10SM
04:15
Overcast
Light Rain
54°F / 12°C 52°F / 11°C 94% 29.5 in
(999 mb)
SE 11.5 mph
(SE 19 kph)
0.01 in
(0.25 mm)
10SM
03:55
Overcast
Rain
54°F / 12°C 52°F / 11°C 94% 29.56 in
(1001 mb)
SSE 11.5 mph
(SSE 19 kph)
0.07 in
(1.78 mm)
7SM
03:35
Overcast
Light Rain
55°F / 13°C 52°F / 11°C 88% 29.56 in
(1001 mb)
S 19.6 mph
(S 32 kph)
0.04 in
(1.02 mm)
10SM
03:15
Overcast
Light Rain
54°F / 12°C 54°F / 12°C 100% 29.56 in
(1001 mb)
SSE 10.4 mph
(SSE 17 kph)
0.03 in
(0.76 mm)
7SM
02:55
Overcast
Heavy Rain
54°F / 12°C 52°F / 11°C 94% 29.59 in
(1002 mb)
S 16.1 mph
(S 26 kph)
0.13 in
(3.30 mm)
3SM
02:35
Mostly Cloudy
Rain
52°F / 11°C 50°F / 10°C 94% 29.59 in
(1002 mb)
SW 5.8 mph
(SW 9 kph)
0.02 in
(0.51 mm)
5SM
02:15
Partly Cloudy
54°F / 12°C 50°F / 10°C 88% 29.53 in
(1000 mb)
SSE 4.6 mph
(SSE 7 kph)
- 10SM
01:55
Mostly Cloudy
54°F / 12°C 50°F / 10°C 88% 29.53 in
(1000 mb)
E 9.2 mph
(E 15 kph)
- 10SM
01:35
Partly Cloudy
54°F / 12°C 50°F / 10°C 88% 29.53 in
(1000 mb)
E 15 mph
(E 24 kph)
- 10SM
01:15
Partly Cloudy
54°F / 12°C 50°F / 10°C 88% 29.56 in
(1001 mb)
E 16.1 mph
(E 26 kph)
- 10SM
00:55
Clear
54°F / 12°C 50°F / 10°C 88% 29.56 in
(1001 mb)
E 17.3 mph
(E 28 kph)
- 10SM
00:35
Clear
54°F / 12°C 50°F / 10°C 88% 29.59 in
(1002 mb)
E 16.1 mph
(E 26 kph)
- 10SM
00:15
Clear
54°F / 12°C 50°F / 10°C 88% 29.59 in
(1002 mb)
E 13.8 mph
(E 22 kph)
- 10SM
Time Weather Temperature Dewpoint Humidity Pressure Winds Precip Visibility


Weather for websites

WeatherForYou.com, LLC is not responsible for any damages or problems caused by this service. Current weather conditions are obtained from the closest station including government and personal stations which may have varying degrees of accuracy. Weather forecasts are derived from the NOAA NDFD. Like all things, this site belongs to Jesus Christ... He just trusts me to maintain it. If you have any questions or comments email webmaster@weatherforyou.com

Copyright © 2014, WeatherForYou.com LLC. All rights reserved.